Flag for France Weather past 2 weeks in Toulon, France

Now
48 °F

Clear.


Feels Like: 44 °F
Forecast: 43 / 58 °F
Wind: 9 mph from North

Location: Hyeres Airport

Current Time: Dec 21, 2014 at 3:55:46 AM

Latest Report: Dec 21, 2014 at 3:30 AM


Visibility: N/A

Pressure: 30.21 "Hg

Humidity: 58%

Dew point: 34 °F

Location of ToulonLocation

Historic Weather in Toulon — Graph

°F

Toulon temperature yesterday

Maximum temperature yesterday: 68 °F (at 2:00 PM)
Minimum temperature yesterday: 43 °F (at 12:00 AM)
Average temperature yesterday: 59 °F

Past Weeks' High & Low Weather Summary

 TemperatureHumidityPressure
High68 °F (Dec 20, 2:00 PM)100% (Dec 19, 9:30 PM)30.24 "Hg (Dec 19, 9:30 PM)
Low39 °F (Dec 11, 4:30 AM)34% (Dec 11, 12:30 PM)29.74 "Hg (Dec 9, 5:30 AM)
Average53 °F69%30.03 "Hg
* Reported Dec 6 2:00 AM — Dec 21 2:30 AM, Toulon, Weather by CustomWeather, © 2014

Note: Actual official high and low records may vary slightly from our data, if they occured in-between our weather recording intervals... More about our weather records

Advertising

Toulon weather history for previous 24 hours

 ConditionsComfort  
Time TempWeatherWind HumidityBarometerVisibility
2:30 AM
Dec 21
50 °FClear.3 mph58%30.18 "HgN/A
2:00 AM50 °FClear.3 mph54%30.18 "HgN/A
1:30 AM52 °FClear.3 mph50%30.21 "HgN/A
1:00 AM55 °FClear.3 mph44%30.21 "HgN/A
12:30 AM55 °FClear.9 mph44%30.18 "HgN/A
12:00 AM55 °FClear.12 mph44%30.21 "HgN/A
11:30 PM
Dec 20
55 °FClear.13 mph44%30.21 "HgN/A
10:30 PM57 °FClear.12 mph41%30.21 "HgN/A
10:00 PM59 °FClear.12 mph36%30.18 "HgN/A
9:30 PM59 °FClear.10 mph36%30.18 "HgN/A
9:00 PM59 °FClear.6 mph36%30.18 "HgN/A
8:30 PM59 °FClear.12 mph36%30.18 "HgN/A
8:00 PM61 °FClear.13 mph34%30.18 "HgN/A
7:30 PM59 °FClear.5 mph42%30.18 "HgN/A
7:00 PM57 °FClear.2 mph48%30.18 "HgN/A
6:30 PM59 °FClear.3 mph45%30.18 "HgN/A
6:00 PM61 °FClear.3 mph45%30.18 "HgN/A
5:30 PM59 °FClear.3 mph51%30.18 "HgN/A
5:00 PM61 °FClear.13 mph52%30.18 "HgN/A
4:30 PM61 °FClear.15 mph52%30.15 "HgN/A
4:00 PM64 °FClear.13 mph43%30.15 "HgN/A
3:30 PM66 °FClear.9 mph40%30.18 "HgN/A
3:00 PM66 °FClear.6 mph40%30.18 "HgN/A
2:30 PM66 °FClear.10 mph46%30.18 "HgN/A
2:00 PM68 °FClear.7 mph38%30.18 "HgN/A
1:30 PM66 °FClear.6 mph49%30.18 "HgN/A
1:00 PM66 °FClear.7 mph46%30.21 "HgN/A
12:30 PM64 °FClear.5 mph49%30.21 "HgN/A
12:00 PM64 °FClear.7 mph49%30.24 "HgN/A
11:30 AM63 °FClear.10 mph52%30.24 "HgN/A
11:00 AM63 °FClear.13 mph52%30.21 "HgN/A
10:30 AM63 °FClear.13 mph56%30.21 "HgN/A
10:00 AM63 °FClear.10 mph52%30.21 "HgN/A
9:30 AM61 °FClear.14 mph52%30.18 "HgN/A
9:00 AM61 °FClear.15 mph52%30.18 "HgN/A
8:30 AM57 °FClear.15 mph59%30.18 "HgN/A
8:00 AM61 °FClear.18 mph52%30.15 "HgN/A
7:30 AM61 °FClear.20 mph52%30.15 "HgN/A
7:00 AM59 °FClear.21 mph55%30.15 "HgN/A
6:30 AM61 °FClear.20 mph52%30.15 "HgN/A
6:00 AM59 °FClear.18 mph55%30.15 "HgN/A
5:30 AM59 °FClear.17 mph55%30.15 "HgN/A
5:00 AM59 °FClear.16 mph55%30.15 "HgN/A
4:30 AM59 °FClear.17 mph55%30.15 "HgN/A
4:00 AM59 °FClear.21 mph55%30.15 "HgN/A
3:30 AM55 °FClear.15 mph63%30.15 "HgN/A
3:00 AM55 °FClear.12 mph63%30.18 "HgN/A
Weather by CustomWeather, © 2014

See weather overviewHow to use our weather pages